STARLINK-1216, 45185

Orbit data source: Space-Track

STARLINK-1216, 45185 is a payload satellite owned by SpaceX/Seattle (US) in LEO that was launched on Mon, 17 Feb 2020 UTC via an FALCON 9 launch vehicle from the Air Force Eastern Test Range (AFETR). Payload-class satellites include a variety of spacecraft equipped with specific instruments for various scientific and technological missions. These include communications satellites like Starlink; space stations such as the ISS; scientific satellites like the Hubble; Earth observation satellites from companies like Planet Labs, Umbra, and HawkEye 360; GPS; miniature CubeSats for education and research; and military/defense satellites.

Loading next visibility...
Identifier
45185, 2020-012H
Orbit
LEO
Country
Flag of USUS
Related business
Manufacturer
SpaceX/Seattle
Mission
Partially operational Commercial Communications
Bus & Motor
STARLINK, Unknown motor
Mass
260 kg wet, ~248 kg dry
Launch date (UTC)
2020-02-17 (6 years ago)
Launch vehicle
FALCON 9
Launch site
Air Force Eastern Test Range (AFETR)
Object type
Payload
Rocket body
Debris
Shape & HBR
Box + 1 Pan, 10.1 m
Radar Cross Section
13.562 m², Large (>1 m²)

Expand to show TLE details & history
Last TLE update: 2 days ago

TLE from 2 days ago
0 STARLINK-1216
1 45185U 20012H   26171.34646620  .00035397  00000-0  99601-3 0  9991
2 45185  53.1554 280.8842 0002548 297.8290  62.2455 15.36170604350630
Epoch: 2026-06-20T08:18Z
TLE epoch observation values (Epoch: 2026-06-20T08:18:54.679Z)
Latitude
-0.00003°
Longitude
-112.40605°
Altitude
457.537 km
Speed
7.64 km/s
True Right ascension
18h 43m 32s
True Declination
0° 00' 00"
Sunlit
Object was in full shadow at epoch
Visualization orbit readout
Latitude
Unknown
Longitude
Unknown
Altitude
Unknown
Speed
Unknown
Apparent Right ascension
Unknown
Apparent Declination
Unknown
Sunlit
N/A
Visualization observer readout
Local Sidereal Time
21:38:40
Azimuth
Unknown
Elevation
Unknown
Doppler factor
Unknown
Orbital elements
Apogee altitude
459.445 km
Perigee altitude
455.962 km
Semi-major axis
6,835.841 km
Eccentricity
0.00025
Inclination
53.1554°
RAAN
280.8842°
Arg. of periapsis
297.829°
True anomaly
62.27134°
Mean anomaly
62.2455°
Eccentric anomaly
62.25842°
Mean motion
3.84021 °/min
Orbital period
93.74 mins
BSTAR
0.00099601
Loading maneuver chart data...
Computing Atmospheric mass density...

Documentation

Showing up to 5 results
|